STARLINK-37045, 68074

Orbit data source: Space-Track

STARLINK-37045, 68074 is a payload satellite owned by SpaceX/Seattle (US) in LEO that was launched on Wed, 04 Mar 2026 UTC via an FALCON 9 launch vehicle from the Air Force Eastern Test Range (AFETR). Payload-class satellites include a variety of spacecraft equipped with specific instruments for various scientific and technological missions. These include communications satellites like Starlink; space stations such as the ISS; scientific satellites like the Hubble; Earth observation satellites from companies like Planet Labs, Umbra, and HawkEye 360; GPS; miniature CubeSats for education and research; and military/defense satellites.

Loading next visibility...
Identifier
68074, 2026-042F
Orbit
LEO
Country
Flag of USUS
Related business
Manufacturer
SpaceX/Seattle
Mission
Operational Commercial Communications
Bus & Motor
STARLINK V2MO, Unknown motor
Mass
575 kg wet, ~530 kg dry
Launch date (UTC)
2026-03-04 (4 months ago)
Launch vehicle
FALCON 9
Launch site
Air Force Eastern Test Range (AFETR)
Object type
Payload
Rocket body
Debris
Shape & HBR
Box + 2 Pan, 17.7 m
Radar Cross Section
36.964 m², Large (>1 m²)

Expand to show TLE details & history
Last TLE update: 22 hours ago

TLE from 22 hours ago
0 STARLINK-37045
1 68074U 26042F   26170.91840465  .00020379  00000-0  61237-3 0  9995
2 68074  53.1590  62.7094 0001405  97.0120 263.1043 15.34413335 17972
Epoch: 2026-06-19T22:02Z
TLE epoch observation values (Epoch: 2026-06-19T22:02:30.161Z)
Latitude
0.00001°
Longitude
-176.05675°
Altitude
463.68 km
Speed
7.636 km/s
True Right ascension
04h 10m 50s
True Declination
0° 00' 00"
Sunlit
Object was in daylight at epoch
Visualization orbit readout
Latitude
Unknown
Longitude
Unknown
Altitude
Unknown
Speed
Unknown
Apparent Right ascension
Unknown
Apparent Declination
Unknown
Sunlit
N/A
Visualization observer readout
Local Sidereal Time
07:19:08
Azimuth
Unknown
Elevation
Unknown
Doppler factor
Unknown
Orbital elements
Apogee altitude
463.882 km
Perigee altitude
461.959 km
Semi-major axis
6,841.058 km
Eccentricity
0.00014
Inclination
53.159°
RAAN
62.7094°
Arg. of periapsis
97.012°
True anomaly
263.08832°
Mean anomaly
263.1043°
Eccentric anomaly
263.09631°
Mean motion
3.83582 °/min
Orbital period
93.85 mins
BSTAR
0.00061237
Loading maneuver chart data...
Computing Atmospheric mass density...
Loading historical data...
Loading historical data...
Loading historical data...
Loading historical data...
Loading historical data...
Loading historical data...
Loading historical data...

Documentation

Showing up to 5 results
|